{"data":{"norad_id":50161,"intl_designator":"2021-125F","name":"STARLINK-3304","alt_names":[],"object_type":"PAYLOAD","status":"ACTIVE","operator":null,"country":"US","launch_date":"2021-12-18","launch_site_code":"AFWTR","launch_vehicle":null,"mission":null,"orbit_class":"UNKNOWN","rcs_meters":null,"size_class":null,"mass_kg":null,"dimensions":null,"purposes":["comms"],"wikipedia_slug":null,"has_3d_model":false,"image_url":null,"decayed_at":null,"tle_current":{"epoch":"2026-09-20T01:39:15.293664Z","epoch_age_seconds":82249,"freshness":"FRESH","line1":"1 50161U 21125F   26263.06892701 -.00015260  00000+0 -42904-3 0  9993","line2":"2 50161  53.1593  93.3900 0001465  52.5914 307.5222 15.35282566265970","mean_motion":15.35282566,"eccentricity":0.0001465,"inclination_deg":53.1593,"raan_deg":93.39,"arg_perigee_deg":52.5914,"mean_anomaly_deg":307.5222,"bstar":-0.00042904,"rev_number":26597,"period_min":93.793809158646,"perigee_km":459.07952577976,"apogee_km":461.08312374892,"semimajor_km":6838.2183247643,"source":"CELESTRAK","updated_at":"2026-09-20T09:00:39.413409Z"}}}